Location: Bacea
(45.9500°N, 22.6667°E)
Time: 06:57:53
(UTC+00:00)

Envisat - Pass Details

Date: 30 January 2022
Orbit: 764 x 765 km, 98.2° (Epoch: 16 May)

Event Time Altitude Azimuth Distance (km) Brightness Sun altitude
Rises 03:28:29 0° 13° (NNE) 3,242 6.4 -25.4°
Reaches altitude 10° 03:30:47 10° 14° (NNE) 2,312 5.6 -25.0°
Maximum altitude 03:35:54 88° 104° (ESE) 772 2.9 -24.1°
Drops below altitude 10° 03:40:59 10° 194° (SSW) 2,296 5.3 -23.2°
Sets 03:43:16 0° 195° (SSW) 3,218 6.1 -22.8°
